Year,Month,Day,Hour,Minute,Value (Times are PST for insolation in W/m^2)
2010,09,09,00,00,0.00
2010,09,09,00,01,0.00
2010,09,09,00,02,0.00
2010,09,09,00,03,0.00
2010,09,09,00,04,0.00
2010,09,09,00,05,0.00
2010,09,09,00,06,0.00
2010,09,09,00,07,0.00
2010,09,09,00,08,0.00
2010,09,09,00,09,0.00
2010,09,09,00,10,0.00
2010,09,09,00,11,0.00
2010,09,09,00,12,0.00
2010,09,09,00,13,0.00
2010,09,09,00,14,0.00
2010,09,09,00,15,0.00
2010,09,09,00,16,0.00
2010,09,09,00,17,0.00
2010,09,09,00,18,0.00
2010,09,09,00,19,0.00
2010,09,09,00,20,0.00
2010,09,09,00,21,0.00
2010,09,09,00,22,0.00
2010,09,09,00,23,0.00
2010,09,09,00,24,0.00
2010,09,09,00,25,0.00
2010,09,09,00,26,0.00
2010,09,09,00,27,0.00
2010,09,09,00,28,0.00
2010,09,09,00,29,0.00
2010,09,09,00,30,0.00
2010,09,09,00,31,0.00
2010,09,09,00,32,0.00
2010,09,09,00,33,0.00
2010,09,09,00,34,0.00
2010,09,09,00,35,0.00
2010,09,09,00,36,0.00
2010,09,09,00,37,0.00
2010,09,09,00,38,0.00
2010,09,09,00,39,0.00
2010,09,09,00,40,0.00
2010,09,09,00,41,0.00
2010,09,09,00,42,0.00
2010,09,09,00,43,0.00
2010,09,09,00,44,0.00
2010,09,09,00,45,0.00
2010,09,09,00,46,0.00
2010,09,09,00,47,0.00
2010,09,09,00,48,0.00
2010,09,09,00,49,0.00
2010,09,09,00,50,0.00
2010,09,09,00,51,0.00
2010,09,09,00,52,0.00
2010,09,09,00,53,0.00
2010,09,09,00,54,0.00
2010,09,09,00,55,0.00
2010,09,09,00,56,0.00
2010,09,09,00,57,0.00
2010,09,09,00,58,0.00
2010,09,09,00,59,0.00
2010,09,09,01,00,0.00
2010,09,09,01,01,0.00
2010,09,09,01,02,0.00
2010,09,09,01,03,0.00
2010,09,09,01,04,0.00
2010,09,09,01,05,0.00
2010,09,09,01,06,0.00
2010,09,09,01,07,0.00
2010,09,09,01,08,0.00
2010,09,09,01,09,0.00
2010,09,09,01,10,0.00
2010,09,09,01,11,0.00
2010,09,09,01,12,0.00
2010,09,09,01,13,0.00
2010,09,09,01,14,0.00
2010,09,09,01,15,0.00
2010,09,09,01,16,0.00
2010,09,09,01,17,0.00
2010,09,09,01,18,0.00
2010,09,09,01,19,0.00
2010,09,09,01,20,0.00
2010,09,09,01,21,0.00
2010,09,09,01,22,0.00
2010,09,09,01,23,0.00
2010,09,09,01,24,0.00
2010,09,09,01,25,0.00
2010,09,09,01,26,0.00
2010,09,09,01,27,0.00
2010,09,09,01,28,0.00
2010,09,09,01,29,0.00
2010,09,09,01,30,0.00
2010,09,09,01,31,0.00
2010,09,09,01,32,0.00
2010,09,09,01,33,0.00
2010,09,09,01,34,0.00
2010,09,09,01,35,0.00
2010,09,09,01,36,0.00
2010,09,09,01,37,0.00
2010,09,09,01,38,0.00
2010,09,09,01,39,0.00
2010,09,09,01,40,0.00
2010,09,09,01,41,0.00
2010,09,09,01,42,0.00
2010,09,09,01,43,0.00
2010,09,09,01,44,0.00
2010,09,09,01,45,0.00
2010,09,09,01,46,0.00
2010,09,09,01,47,0.00
2010,09,09,01,48,0.00
2010,09,09,01,49,0.00
2010,09,09,01,50,0.00
2010,09,09,01,51,0.00
2010,09,09,01,52,0.00
2010,09,09,01,53,0.00
2010,09,09,01,54,0.00
2010,09,09,01,55,0.00
2010,09,09,01,56,0.00
2010,09,09,01,57,0.00
2010,09,09,01,58,0.00
2010,09,09,01,59,0.00
2010,09,09,02,00,0.00
2010,09,09,02,01,0.00
2010,09,09,02,02,0.00
2010,09,09,02,03,0.00
2010,09,09,02,04,0.00
2010,09,09,02,05,0.00
2010,09,09,02,06,0.00
2010,09,09,02,07,0.00
2010,09,09,02,08,0.00
2010,09,09,02,09,0.00
2010,09,09,02,10,0.00
2010,09,09,02,11,0.00
2010,09,09,02,12,0.00
2010,09,09,02,13,0.00
2010,09,09,02,14,0.00
2010,09,09,02,15,0.00
2010,09,09,02,16,0.00
2010,09,09,02,17,0.00
2010,09,09,02,18,0.00
2010,09,09,02,19,0.00
2010,09,09,02,20,0.00
2010,09,09,02,21,0.00
2010,09,09,02,22,0.00
2010,09,09,02,23,0.00
2010,09,09,02,24,0.00
2010,09,09,02,25,0.00
2010,09,09,02,26,0.00
2010,09,09,02,27,0.00
2010,09,09,02,28,0.00
2010,09,09,02,29,0.00
2010,09,09,02,30,0.00
2010,09,09,02,31,0.00
2010,09,09,02,32,0.00
2010,09,09,02,33,0.00
2010,09,09,02,34,0.00
2010,09,09,02,35,0.00
2010,09,09,02,36,0.00
2010,09,09,02,37,0.00
2010,09,09,02,38,0.00
2010,09,09,02,39,0.00
2010,09,09,02,40,0.00
2010,09,09,02,41,0.00
2010,09,09,02,42,0.00
2010,09,09,02,43,0.00
2010,09,09,02,44,0.00
2010,09,09,02,45,0.00
2010,09,09,02,46,0.00
2010,09,09,02,47,0.00
2010,09,09,02,48,0.00
2010,09,09,02,49,0.00
2010,09,09,02,50,0.00
2010,09,09,02,51,0.00
2010,09,09,02,52,0.00
2010,09,09,02,53,0.00
2010,09,09,02,54,0.00
2010,09,09,02,55,0.00
2010,09,09,02,56,0.00
2010,09,09,02,57,0.00
2010,09,09,02,58,0.00
2010,09,09,02,59,0.00
2010,09,09,03,00,0.00
2010,09,09,03,01,0.00
2010,09,09,03,02,0.00
2010,09,09,03,03,0.00
2010,09,09,03,04,0.00
2010,09,09,03,05,0.00
2010,09,09,03,06,0.00
2010,09,09,03,07,0.00
2010,09,09,03,08,0.00
2010,09,09,03,09,0.00
2010,09,09,03,10,0.00
2010,09,09,03,11,0.00
2010,09,09,03,12,0.00
2010,09,09,03,13,0.00
2010,09,09,03,14,0.00
2010,09,09,03,15,0.00
2010,09,09,03,16,0.00
2010,09,09,03,17,0.00
2010,09,09,03,18,0.00
2010,09,09,03,19,0.00
2010,09,09,03,20,0.00
2010,09,09,03,21,0.00
2010,09,09,03,22,0.00
2010,09,09,03,23,0.00
2010,09,09,03,24,0.00
2010,09,09,03,25,0.00
2010,09,09,03,26,0.00
2010,09,09,03,27,0.00
2010,09,09,03,28,0.00
2010,09,09,03,29,0.00
2010,09,09,03,30,0.00
2010,09,09,03,31,0.00
2010,09,09,03,32,0.00
2010,09,09,03,33,0.00
2010,09,09,03,34,0.00
2010,09,09,03,35,0.00
2010,09,09,03,36,0.00
2010,09,09,03,37,0.00
2010,09,09,03,38,0.00
2010,09,09,03,39,0.00
2010,09,09,03,40,0.00
2010,09,09,03,41,0.00
2010,09,09,03,42,0.00
2010,09,09,03,43,0.00
2010,09,09,03,44,0.00
2010,09,09,03,45,0.00
2010,09,09,03,46,0.00
2010,09,09,03,47,0.00
2010,09,09,03,48,0.00
2010,09,09,03,49,0.00
2010,09,09,03,50,0.00
2010,09,09,03,51,0.00
2010,09,09,03,52,0.00
2010,09,09,03,53,0.00
2010,09,09,03,54,0.00
2010,09,09,03,55,0.00
2010,09,09,03,56,0.00
2010,09,09,03,57,0.00
2010,09,09,03,58,0.00
2010,09,09,03,59,0.00
2010,09,09,04,00,0.00
2010,09,09,04,01,0.00
2010,09,09,04,02,0.00
2010,09,09,04,03,0.00
2010,09,09,04,04,0.00
2010,09,09,04,05,0.00
2010,09,09,04,06,0.00
2010,09,09,04,07,0.00
2010,09,09,04,08,0.00
2010,09,09,04,09,0.00
2010,09,09,04,10,0.00
2010,09,09,04,11,0.00
2010,09,09,04,12,0.00
2010,09,09,04,13,0.00
2010,09,09,04,14,0.00
2010,09,09,04,15,0.00
2010,09,09,04,16,0.00
2010,09,09,04,17,0.00
2010,09,09,04,18,0.00
2010,09,09,04,19,0.00
2010,09,09,04,20,0.00
2010,09,09,04,21,0.00
2010,09,09,04,22,0.00
2010,09,09,04,23,0.00
2010,09,09,04,24,0.00
2010,09,09,04,25,0.00
2010,09,09,04,26,0.00
2010,09,09,04,27,0.00
2010,09,09,04,28,0.00
2010,09,09,04,29,0.00
2010,09,09,04,30,0.00
2010,09,09,04,31,0.00
2010,09,09,04,32,0.00
2010,09,09,04,33,0.00
2010,09,09,04,34,0.00
2010,09,09,04,35,0.00
2010,09,09,04,36,0.00
2010,09,09,04,37,0.00
2010,09,09,04,38,0.00
2010,09,09,04,39,0.00
2010,09,09,04,40,0.00
2010,09,09,04,41,0.00
2010,09,09,04,42,0.00
2010,09,09,04,43,0.00
2010,09,09,04,44,0.00
2010,09,09,04,45,0.00
2010,09,09,04,46,0.00
2010,09,09,04,47,0.00
2010,09,09,04,48,0.00
2010,09,09,04,49,0.00
2010,09,09,04,50,0.00
2010,09,09,04,51,0.00
2010,09,09,04,52,0.00
2010,09,09,04,53,0.00
2010,09,09,04,54,0.00
2010,09,09,04,55,0.00
2010,09,09,04,56,0.00
2010,09,09,04,57,0.00
2010,09,09,04,58,0.00
2010,09,09,04,59,0.00
2010,09,09,05,00,0.00
2010,09,09,05,01,0.00
2010,09,09,05,02,0.00
2010,09,09,05,03,0.00
2010,09,09,05,04,0.00
2010,09,09,05,05,0.00
2010,09,09,05,06,0.00
2010,09,09,05,07,0.00
2010,09,09,05,08,0.00
2010,09,09,05,09,0.00
2010,09,09,05,10,0.00
2010,09,09,05,11,0.00
2010,09,09,05,12,0.00
2010,09,09,05,13,0.00
2010,09,09,05,14,0.00
2010,09,09,05,15,0.00
2010,09,09,05,16,0.00
2010,09,09,05,17,0.00
2010,09,09,05,18,0.00
2010,09,09,05,19,0.00
2010,09,09,05,20,0.00
2010,09,09,05,21,0.00
2010,09,09,05,22,0.00
2010,09,09,05,23,0.00
2010,09,09,05,24,0.00
2010,09,09,05,25,0.00
2010,09,09,05,26,0.00
2010,09,09,05,27,0.00
2010,09,09,05,28,0.00
2010,09,09,05,29,0.00
2010,09,09,05,30,0.00
2010,09,09,05,31,0.00
2010,09,09,05,32,0.00
2010,09,09,05,33,0.00
2010,09,09,05,34,0.00
2010,09,09,05,35,0.00
2010,09,09,05,36,0.00
2010,09,09,05,37,0.00
2010,09,09,05,38,0.00
2010,09,09,05,39,0.00
2010,09,09,05,40,0.00
2010,09,09,05,41,0.00
2010,09,09,05,42,0.00
2010,09,09,05,43,0.00
2010,09,09,05,44,0.00
2010,09,09,05,45,0.00
2010,09,09,05,46,0.00
2010,09,09,05,47,0.00
2010,09,09,05,48,0.00
2010,09,09,05,49,0.00
2010,09,09,05,50,0.00
2010,09,09,05,51,0.00
2010,09,09,05,52,0.00
2010,09,09,05,53,0.00
2010,09,09,05,54,0.00
2010,09,09,05,55,0.00
2010,09,09,05,56,0.00
2010,09,09,05,57,0.00
2010,09,09,05,58,0.00
2010,09,09,05,59,0.00
2010,09,09,06,00,0.00
2010,09,09,06,01,0.00
2010,09,09,06,02,0.00
2010,09,09,06,03,0.00
2010,09,09,06,04,0.00
2010,09,09,06,05,0.00
2010,09,09,06,06,0.00
2010,09,09,06,07,0.00
2010,09,09,06,08,0.00
2010,09,09,06,09,0.00
2010,09,09,06,10,0.00
2010,09,09,06,11,0.00
2010,09,09,06,12,0.00
2010,09,09,06,13,0.00
2010,09,09,06,14,0.00
2010,09,09,06,15,0.00
2010,09,09,06,16,0.00
2010,09,09,06,17,0.00
2010,09,09,06,18,0.00
2010,09,09,06,19,0.00
2010,09,09,06,20,0.00
2010,09,09,06,21,0.00
2010,09,09,06,22,0.00
2010,09,09,06,23,0.00
2010,09,09,06,24,0.00
2010,09,09,06,25,0.00
2010,09,09,06,26,0.00
2010,09,09,06,27,0.00
2010,09,09,06,28,0.00
2010,09,09,06,29,0.00
2010,09,09,06,30,0.00
2010,09,09,06,31,0.00
2010,09,09,06,32,0.00
2010,09,09,06,33,0.00
2010,09,09,06,34,0.00
2010,09,09,06,35,0.00
2010,09,09,06,36,0.00
2010,09,09,06,37,0.00
2010,09,09,06,38,0.00
2010,09,09,06,39,0.00
2010,09,09,06,40,0.00
2010,09,09,06,41,0.00
2010,09,09,06,42,0.00
2010,09,09,06,43,0.00
2010,09,09,06,44,0.00
2010,09,09,06,45,0.00
2010,09,09,06,46,0.00
2010,09,09,06,47,0.00
2010,09,09,06,48,0.00
2010,09,09,06,49,2.20
2010,09,09,06,50,5.00
2010,09,09,06,51,5.00
2010,09,09,06,52,5.00
2010,09,09,06,53,5.00
2010,09,09,06,54,5.00
2010,09,09,06,55,5.00
2010,09,09,06,56,6.20
2010,09,09,06,57,7.00
2010,09,09,06,58,7.00
2010,09,09,06,59,9.00
2010,09,09,07,00,9.00
2010,09,09,07,01,9.00
2010,09,09,07,02,9.00
2010,09,09,07,03,10.60
2010,09,09,07,04,11.00
2010,09,09,07,05,12.40
2010,09,09,07,06,14.70
2010,09,09,07,07,16.00
2010,09,09,07,08,18.00
2010,09,09,07,09,20.70
2010,09,09,07,10,22.90
2010,09,09,07,11,22.60
2010,09,09,07,12,21.00
2010,09,09,07,13,21.00
2010,09,09,07,14,21.00
2010,09,09,07,15,21.00
2010,09,09,07,16,23.40
2010,09,09,07,17,30.00
2010,09,09,07,18,28.40
2010,09,09,07,19,24.30
2010,09,09,07,20,21.60
2010,09,09,07,21,25.40
2010,09,09,07,22,32.10
2010,09,09,07,23,33.60
2010,09,09,07,24,35.80
2010,09,09,07,25,39.90
2010,09,09,07,26,43.40
2010,09,09,07,27,39.60
2010,09,09,07,28,35.00
2010,09,09,07,29,34.20
2010,09,09,07,30,32.40
2010,09,09,07,31,36.70
2010,09,09,07,32,41.30
2010,09,09,07,33,46.40
2010,09,09,07,34,51.00
2010,09,09,07,35,52.40
2010,09,09,07,36,60.00
2010,09,09,07,37,70.50
2010,09,09,07,38,74.00
2010,09,09,07,39,70.20
2010,09,09,07,40,70.70
2010,09,09,07,41,76.30
2010,09,09,07,42,85.50
2010,09,09,07,43,94.70
2010,09,09,07,44,107.90
2010,09,09,07,45,107.20
2010,09,09,07,46,84.80
2010,09,09,07,47,69.00
2010,09,09,07,48,77.50
2010,09,09,07,49,98.00
2010,09,09,07,50,114.00
2010,09,09,07,51,128.60
2010,09,09,07,52,103.20
2010,09,09,07,53,94.70
2010,09,09,07,54,87.50
2010,09,09,07,55,77.30
2010,09,09,07,56,60.70
2010,09,09,07,57,52.90
2010,09,09,07,58,54.10
2010,09,09,07,59,65.80
2010,09,09,08,00,62.00
2010,09,09,08,01,73.30
2010,09,09,08,02,71.20
2010,09,09,08,03,68.30
2010,09,09,08,04,82.30
2010,09,09,08,05,98.80
2010,09,09,08,06,116.60
2010,09,09,08,07,122.40
2010,09,09,08,08,116.80
2010,09,09,08,09,124.60
2010,09,09,08,10,138.40
2010,09,09,08,11,132.70
2010,09,09,08,12,132.70
2010,09,09,08,13,126.50
2010,09,09,08,14,130.80
2010,09,09,08,15,135.30
2010,09,09,08,16,152.40
2010,09,09,08,17,174.30
2010,09,09,08,18,176.70
2010,09,09,08,19,156.10
2010,09,09,08,20,137.80
2010,09,09,08,21,103.80
2010,09,09,08,22,97.70
2010,09,09,08,23,101.40
2010,09,09,08,24,114.30
2010,09,09,08,25,114.10
2010,09,09,08,26,162.10
2010,09,09,08,27,216.70
2010,09,09,08,28,202.30
2010,09,09,08,29,213.50
2010,09,09,08,30,222.70
2010,09,09,08,31,212.30
2010,09,09,08,32,212.50
2010,09,09,08,33,182.10
2010,09,09,08,34,184.40
2010,09,09,08,35,199.50
2010,09,09,08,36,227.00
2010,09,09,08,37,264.70
2010,09,09,08,38,254.20
2010,09,09,08,39,212.10
2010,09,09,08,40,245.20
2010,09,09,08,41,270.10
2010,09,09,08,42,273.00
2010,09,09,08,43,275.70
2010,09,09,08,44,258.20
2010,09,09,08,45,279.10
2010,09,09,08,46,272.10
2010,09,09,08,47,261.70
2010,09,09,08,48,267.00
2010,09,09,08,49,254.60
2010,09,09,08,50,288.40
2010,09,09,08,51,204.00
2010,09,09,08,52,224.90
2010,09,09,08,53,207.00
2010,09,09,08,54,127.70
2010,09,09,08,55,134.30
2010,09,09,08,56,185.00
2010,09,09,08,57,223.30
2010,09,09,08,58,323.90
2010,09,09,08,59,323.80
2010,09,09,09,00,322.20
2010,09,09,09,01,322.00
2010,09,09,09,02,322.10
2010,09,09,09,03,323.70
2010,09,09,09,04,325.90
2010,09,09,09,05,328.10
2010,09,09,09,06,331.30
2010,09,09,09,07,332.20
2010,09,09,09,08,336.30
2010,09,09,09,09,339.00
2010,09,09,09,10,342.00
2010,09,09,09,11,344.30
2010,09,09,09,12,345.00
2010,09,09,09,13,346.00
2010,09,09,09,14,348.70
2010,09,09,09,15,352.30
2010,09,09,09,16,354.00
2010,09,09,09,17,357.70
2010,09,09,09,18,359.00
2010,09,09,09,19,360.10
2010,09,09,09,20,362.90
2010,09,09,09,21,366.00
2010,09,09,09,22,367.70
2010,09,09,09,23,370.20
2010,09,09,09,24,372.80
2010,09,09,09,25,374.10
2010,09,09,09,26,376.50
2010,09,09,09,27,378.00
2010,09,09,09,28,379.70
2010,09,09,09,29,382.40
2010,09,09,09,30,386.60
2010,09,09,09,31,388.10
2010,09,09,09,32,390.60
2010,09,09,09,33,392.90
2010,09,09,09,34,395.20
2010,09,09,09,35,396.00
2010,09,09,09,36,398.70
2010,09,09,09,37,403.60
2010,09,09,09,38,410.00
2010,09,09,09,39,418.10
2010,09,09,09,40,424.90
2010,09,09,09,41,430.50
2010,09,09,09,42,437.70
2010,09,09,09,43,436.00
2010,09,09,09,44,435.40
2010,09,09,09,45,433.20
2010,09,09,09,46,428.80
2010,09,09,09,47,427.00
2010,09,09,09,48,427.00
2010,09,09,09,49,378.80
2010,09,09,09,50,383.00
2010,09,09,09,51,383.00
2010,09,09,09,52,302.30
2010,09,09,09,53,298.70
2010,09,09,09,54,325.80
2010,09,09,09,55,391.80
2010,09,09,09,56,394.60
2010,09,09,09,57,390.20
2010,09,09,09,58,401.70
2010,09,09,09,59,370.50
2010,09,09,10,00,401.10
2010,09,09,10,01,399.70
2010,09,09,10,02,414.10
2010,09,09,10,03,456.10
2010,09,09,10,04,459.90
2010,09,09,10,05,463.50
2010,09,09,10,06,464.30
2010,09,09,10,07,469.80
2010,09,09,10,08,471.40
2010,09,09,10,09,468.40
2010,09,09,10,10,466.60
2010,09,09,10,11,460.40
2010,09,09,10,12,471.60
2010,09,09,10,13,481.90
2010,09,09,10,14,502.20
2010,09,09,10,15,507.70
2010,09,09,10,16,517.80
2010,09,09,10,17,525.30
2010,09,09,10,18,524.60
2010,09,09,10,19,526.50
2010,09,09,10,20,516.70
2010,09,09,10,21,469.50
2010,09,09,10,22,494.70
2010,09,09,10,23,425.40
2010,09,09,10,24,427.20
2010,09,09,10,25,492.00
2010,09,09,10,26,544.40
2010,09,09,10,27,610.00
2010,09,09,10,28,429.60
2010,09,09,10,29,349.70
2010,09,09,10,30,348.00
2010,09,09,10,31,359.70
2010,09,09,10,32,356.50
2010,09,09,10,33,334.90
2010,09,09,10,34,312.10
2010,09,09,10,35,293.40
2010,09,09,10,36,297.80
2010,09,09,10,37,311.00
2010,09,09,10,38,348.00
2010,09,09,10,39,367.00
2010,09,09,10,40,367.00
2010,09,09,10,41,360.90
2010,09,09,10,42,255.80
2010,09,09,10,43,247.20
2010,09,09,10,44,244.90
2010,09,09,10,45,246.40
2010,09,09,10,46,256.30
2010,09,09,10,47,270.90
2010,09,09,10,48,309.20
2010,09,09,10,49,317.00
2010,09,09,10,50,270.80
2010,09,09,10,51,265.00
2010,09,09,10,52,265.00
2010,09,09,10,53,258.90
2010,09,09,10,54,248.90
2010,09,09,10,55,244.70
2010,09,09,10,56,240.60
2010,09,09,10,57,212.30
2010,09,09,10,58,205.60
2010,09,09,10,59,214.30
2010,09,09,11,00,226.00
2010,09,09,11,01,231.20
2010,09,09,11,02,234.00
2010,09,09,11,03,234.00
2010,09,09,11,04,215.10
2010,09,09,11,05,192.70
2010,09,09,11,06,179.60
2010,09,09,11,07,176.00
2010,09,09,11,08,241.30
2010,09,09,11,09,289.60
2010,09,09,11,10,323.30
2010,09,09,11,11,354.70
2010,09,09,11,12,376.70
2010,09,09,11,13,375.00
2010,09,09,11,14,366.70
2010,09,09,11,15,369.50
2010,09,09,11,16,367.10
2010,09,09,11,17,401.30
2010,09,09,11,18,387.30
2010,09,09,11,19,390.00
2010,09,09,11,20,360.00
2010,09,09,11,21,328.50
2010,09,09,11,22,344.40
2010,09,09,11,23,367.40
2010,09,09,11,24,396.20
2010,09,09,11,25,417.80
2010,09,09,11,26,392.00
2010,09,09,11,27,392.00
2010,09,09,11,28,393.40
2010,09,09,11,29,410.60
2010,09,09,11,30,386.60
2010,09,09,11,31,439.20
2010,09,09,11,32,514.90
2010,09,09,11,33,531.00
2010,09,09,11,34,420.00
2010,09,09,11,35,407.10
2010,09,09,11,36,415.00
2010,09,09,11,37,490.20
2010,09,09,11,38,534.20
2010,09,09,11,39,520.60
2010,09,09,11,40,453.50
2010,09,09,11,41,420.80
2010,09,09,11,42,367.70
2010,09,09,11,43,366.90
2010,09,09,11,44,339.90
2010,09,09,11,45,392.60
2010,09,09,11,46,406.70
2010,09,09,11,47,495.00
2010,09,09,11,48,535.20
2010,09,09,11,49,577.00
2010,09,09,11,50,762.30
2010,09,09,11,51,802.00
2010,09,09,11,52,212.00
2010,09,09,11,53,272.00
2010,09,09,11,54,272.00
2010,09,09,11,55,493.10
2010,09,09,11,56,634.40
2010,09,09,11,57,623.30
2010,09,09,11,58,373.00
2010,09,09,11,59,422.70
2010,09,09,12,00,522.00
2010,09,09,12,01,366.00
2010,09,09,12,02,288.00
2010,09,09,12,03,579.60
2010,09,09,12,04,612.00
2010,09,09,12,05,594.90
2010,09,09,12,06,580.80
2010,09,09,12,07,585.00
2010,09,09,12,08,582.00
2010,09,09,12,09,582.00
2010,09,09,12,10,573.20
2010,09,09,12,11,570.30
2010,09,09,12,12,621.00
2010,09,09,12,13,621.00
2010,09,09,12,14,621.00
2010,09,09,12,15,548.00
2010,09,09,12,16,548.00
2010,09,09,12,17,561.70
2010,09,09,12,18,587.00
2010,09,09,12,19,390.60
2010,09,09,12,20,315.00
2010,09,09,12,21,608.20
2010,09,09,12,22,623.60
2010,09,09,12,23,660.80
2010,09,09,12,24,663.00
2010,09,09,12,25,663.00
2010,09,09,12,26,304.10
2010,09,09,12,27,264.00
2010,09,09,12,28,404.00
2010,09,09,12,29,688.00
2010,09,09,12,30,693.60
2010,09,09,12,31,698.70
2010,09,09,12,32,707.60
2010,09,09,12,33,709.00
2010,09,09,12,34,713.70
2010,09,09,12,35,698.00
2010,09,09,12,36,690.30
2010,09,09,12,37,689.00
2010,09,09,12,38,687.10
2010,09,09,12,39,680.90
2010,09,09,12,40,686.90
2010,09,09,12,41,689.00
2010,09,09,12,42,690.20
2010,09,09,12,43,691.00
2010,09,09,12,44,693.00
2010,09,09,12,45,696.00
2010,09,09,12,46,696.00
2010,09,09,12,47,698.20
2010,09,09,12,48,712.70
2010,09,09,12,49,719.00
2010,09,09,12,50,283.00
2010,09,09,12,51,387.50
2010,09,09,12,52,697.90
2010,09,09,12,53,690.80
2010,09,09,12,54,691.80
2010,09,09,12,55,693.90
2010,09,09,12,56,684.00
2010,09,09,12,57,682.90
2010,09,09,12,58,680.00
2010,09,09,12,59,680.00
2010,09,09,13,00,659.80
2010,09,09,13,01,668.90
2010,09,09,13,02,670.00
2010,09,09,13,03,667.50
2010,09,09,13,04,666.30
2010,09,09,13,05,662.60
2010,09,09,13,06,658.30
2010,09,09,13,07,657.10
2010,09,09,13,08,662.20
2010,09,09,13,09,668.00
2010,09,09,13,10,614.20
2010,09,09,13,11,541.50
2010,09,09,13,12,540.30
2010,09,09,13,13,541.00
2010,09,09,13,14,687.00
2010,09,09,13,15,687.00
2010,09,09,13,16,687.00
2010,09,09,13,17,496.10
2010,09,09,13,18,395.50
2010,09,09,13,19,403.40
2010,09,09,13,20,512.00
2010,09,09,13,21,512.00
2010,09,09,13,22,598.00
2010,09,09,13,23,685.30
2010,09,09,13,24,684.30
2010,09,09,13,25,682.10
2010,09,09,13,26,683.60
2010,09,09,13,27,682.00
2010,09,09,13,28,682.00
2010,09,09,13,29,683.40
2010,09,09,13,30,682.30
2010,09,09,13,31,682.00
2010,09,09,13,32,682.00
2010,09,09,13,33,681.20
2010,09,09,13,34,680.00
2010,09,09,13,35,681.40
2010,09,09,13,36,680.30
2010,09,09,13,37,681.90
2010,09,09,13,38,682.00
2010,09,09,13,39,681.10
2010,09,09,13,40,679.40
2010,09,09,13,41,679.00
2010,09,09,13,42,679.90
2010,09,09,13,43,679.10
2010,09,09,13,44,679.80
2010,09,09,13,45,678.10
2010,09,09,13,46,677.00
2010,09,09,13,47,677.00
2010,09,09,13,48,675.10
2010,09,09,13,49,676.60
2010,09,09,13,50,674.40
2010,09,09,13,51,673.00
2010,09,09,13,52,673.00
2010,09,09,13,53,671.60
2010,09,09,13,54,671.00
2010,09,09,13,55,670.80
2010,09,09,13,56,670.00
2010,09,09,13,57,669.00
2010,09,09,13,58,668.00
2010,09,09,13,59,668.00
2010,09,09,14,00,668.00
2010,09,09,14,01,666.30
2010,09,09,14,02,667.30
2010,09,09,14,03,667.10
2010,09,09,14,04,666.70
2010,09,09,14,05,664.30
2010,09,09,14,06,663.90
2010,09,09,14,07,663.00
2010,09,09,14,08,663.00
2010,09,09,14,09,661.90
2010,09,09,14,10,661.00
2010,09,09,14,11,661.00
2010,09,09,14,12,660.80
2010,09,09,14,13,656.80
2010,09,09,14,14,656.40
2010,09,09,14,15,656.50
2010,09,09,14,16,656.00
2010,09,09,14,17,654.20
2010,09,09,14,18,654.20
2010,09,09,14,19,656.00
2010,09,09,14,20,656.40
2010,09,09,14,21,654.20
2010,09,09,14,22,652.00
2010,09,09,14,23,650.40
2010,09,09,14,24,649.10
2010,09,09,14,25,649.00
2010,09,09,14,26,648.10
2010,09,09,14,27,644.60
2010,09,09,14,28,642.20
2010,09,09,14,29,642.00
2010,09,09,14,30,641.80
2010,09,09,14,31,639.40
2010,09,09,14,32,637.00
2010,09,09,14,33,636.00
2010,09,09,14,34,636.00
2010,09,09,14,35,635.10
2010,09,09,14,36,633.00
2010,09,09,14,37,633.00
2010,09,09,14,38,633.00
2010,09,09,14,39,630.40
2010,09,09,14,40,629.00
2010,09,09,14,41,628.20
2010,09,09,14,42,626.00
2010,09,09,14,43,626.00
2010,09,09,14,44,625.00
2010,09,09,14,45,622.70
2010,09,09,14,46,622.00
2010,09,09,14,47,621.00
2010,09,09,14,48,620.60
2010,09,09,14,49,618.20
2010,09,09,14,50,615.90
2010,09,09,14,51,615.00
2010,09,09,14,52,613.30
2010,09,09,14,53,611.60
2010,09,09,14,54,608.40
2010,09,09,14,55,609.20
2010,09,09,14,56,606.90
2010,09,09,14,57,606.00
2010,09,09,14,58,605.10
2010,09,09,14,59,604.80
2010,09,09,15,00,603.00
2010,09,09,15,01,602.10
2010,09,09,15,02,599.20
2010,09,09,15,03,598.00
2010,09,09,15,04,596.20
2010,09,09,15,05,596.00
2010,09,09,15,06,596.00
2010,09,09,15,07,595.10
2010,09,09,15,08,592.90
2010,09,09,15,09,592.00
2010,09,09,15,10,591.20
2010,09,09,15,11,588.70
2010,09,09,15,12,586.30
2010,09,09,15,13,585.00
2010,09,09,15,14,585.00
2010,09,09,15,15,585.00
2010,09,09,15,16,585.00
2010,09,09,15,17,583.50
2010,09,09,15,18,574.30
2010,09,09,15,19,573.00
2010,09,09,15,20,571.70
2010,09,09,15,21,570.20
2010,09,09,15,22,568.00
2010,09,09,15,23,568.00
2010,09,09,15,24,567.20
2010,09,09,15,25,564.50
2010,09,09,15,26,563.00
2010,09,09,15,27,559.70
2010,09,09,15,28,559.00
2010,09,09,15,29,558.60
2010,09,09,15,30,557.00
2010,09,09,15,31,554.50
2010,09,09,15,32,553.40
2010,09,09,15,33,552.30
2010,09,09,15,34,550.00
2010,09,09,15,35,549.60
2010,09,09,15,36,547.60
2010,09,09,15,37,547.00
2010,09,09,15,38,545.60
2010,09,09,15,39,543.20
2010,09,09,15,40,540.90
2010,09,09,15,41,539.40
2010,09,09,15,42,537.10
2010,09,09,15,43,534.90
2010,09,09,15,44,533.30
2010,09,09,15,45,531.20
2010,09,09,15,46,529.00
2010,09,09,15,47,528.20
2010,09,09,15,48,526.00
2010,09,09,15,49,524.80
2010,09,09,15,50,520.90
2010,09,09,15,51,520.00
2010,09,09,15,52,517.00
2010,09,09,15,53,515.90
2010,09,09,15,54,512.60
2010,09,09,15,55,512.00
2010,09,09,15,56,508.90
2010,09,09,15,57,504.20
2010,09,09,15,58,503.50
2010,09,09,15,59,500.30
2010,09,09,16,00,499.00
2010,09,09,16,01,497.70
2010,09,09,16,02,496.20
2010,09,09,16,03,489.90
2010,09,09,16,04,489.00
2010,09,09,16,05,488.30
2010,09,09,16,06,485.00
2010,09,09,16,07,483.00
2010,09,09,16,08,482.20
2010,09,09,16,09,479.80
2010,09,09,16,10,475.80
2010,09,09,16,11,475.00
2010,09,09,16,12,472.80
2010,09,09,16,13,469.70
2010,09,09,16,14,468.20
2010,09,09,16,15,465.80
2010,09,09,16,16,463.40
2010,09,09,16,17,461.60
2010,09,09,16,18,459.90
2010,09,09,16,19,457.60
2010,09,09,16,20,455.20
2010,09,09,16,21,453.80
2010,09,09,16,22,451.40
2010,09,09,16,23,449.10
2010,09,09,16,24,446.80
2010,09,09,16,25,443.80
2010,09,09,16,26,441.20
2010,09,09,16,27,437.80
2010,09,09,16,28,435.40
2010,09,09,16,29,433.10
2010,09,09,16,30,430.20
2010,09,09,16,31,429.00
2010,09,09,16,32,427.20
2010,09,09,16,33,423.80
2010,09,09,16,34,420.90
2010,09,09,16,35,418.00
2010,09,09,16,36,416.40
2010,09,09,16,37,413.60
2010,09,09,16,38,410.20
2010,09,09,16,39,409.30
2010,09,09,16,40,406.00
2010,09,09,16,41,404.50
2010,09,09,16,42,401.70
2010,09,09,16,43,399.40
2010,09,09,16,44,396.20
2010,09,09,16,45,395.60
2010,09,09,16,46,392.40
2010,09,09,16,47,388.50
2010,09,09,16,48,387.00
2010,09,09,16,49,385.30
2010,09,09,16,50,380.90
2010,09,09,16,51,379.10
2010,09,09,16,52,375.20
2010,09,09,16,53,373.40
2010,09,09,16,54,370.30
2010,09,09,16,55,369.00
2010,09,09,16,56,365.90
2010,09,09,16,57,363.60
2010,09,09,16,58,361.20
2010,09,09,16,59,358.30
2010,09,09,17,00,355.60
2010,09,09,17,01,353.20
2010,09,09,17,02,351.80
2010,09,09,17,03,349.40
2010,09,09,17,04,346.70
2010,09,09,17,05,343.80
2010,09,09,17,06,340.10
2010,09,09,17,07,338.10
2010,09,09,17,08,337.60
2010,09,09,17,09,333.40
2010,09,09,17,10,331.10
2010,09,09,17,11,329.40
2010,09,09,17,12,326.30
2010,09,09,17,13,323.20